{"data":{"norad_id":55926,"intl_designator":"2023-037N","name":"STARLINK-5921","alt_names":[],"object_type":"PAYLOAD","status":"ACTIVE","operator":null,"country":"US","launch_date":"2023-03-17","launch_site_code":"AFWTR","launch_vehicle":null,"mission":null,"orbit_class":"UNKNOWN","rcs_meters":null,"size_class":null,"mass_kg":null,"dimensions":null,"purposes":["comms"],"wikipedia_slug":null,"has_3d_model":false,"image_url":null,"decayed_at":null,"tle_current":{"epoch":"2026-09-20T22:00:03.000096Z","epoch_age_seconds":70201,"freshness":"FRESH","line1":"1 55926U 23037N   26263.91670139  .00022887  00000+0  15551-2 0  9992","line2":"2 55926  69.9997 152.2374 0004530 300.6568  41.7698 15.06319094  5718","mean_motion":15.06319094,"eccentricity":0.000453,"inclination_deg":69.9997,"raan_deg":152.2374,"arg_perigee_deg":300.6568,"mean_anomaly_deg":41.7698,"bstar":0.0015551,"rev_number":571,"period_min":95.597274557286,"perigee_km":544.32223904431,"apogee_km":550.59682950437,"semimajor_km":6925.5965342743,"source":"CELESTRAK","updated_at":"2026-09-21T09:00:33.324521Z"}}}